Location: Garfield Heights
(41.4170°N, 81.6060°W)
Time: 16:30:36
(UTC+00:00)

Daily predictions for brighter satellites

Satellite Brightness Start Highest point End
(mag) Time Altitude Azimuth Time Altitude Azimuth Time Altitude Azimuth
STARLINK 1032 4.2 12:00:14 10° W 12:03:35 32° NNW 12:06:57 10° NE
STARLINK 1011 4.2 12:03:23 10° W 12:06:42 31° NNW 12:10:01 10° NE
STARLINK-60 3.0 12:03:57 10° NW 12:07:19 79° SW 12:10:40 10° SE
STARLINK 1064 3.9 12:04:54 10° SW 12:09:01 75° SE 12:13:09 10° NE
STARLINK 1036 4.3 12:06:32 10° W 12:09:49 30° NNW 12:13:08 10° NE
Genesis I 4.5 12:06:59 10° WNW 12:10:03 23° WSW 12:13:04 10° SSW
SL-16 R/B 3.0 12:05:18 10° WSW 12:10:14 30° NW 12:15:13 10° N
STARLINK 1040 4.5 12:08:21 10° WNW 12:10:22 17° NNW 12:12:23 10° NNE
Cosmos 2322 4.0 12:07:42 10° SSW 12:13:21 77° ESE 12:19:01 10° NNE
IRS-1C Rocket 4.1 12:08:10 10° N 12:13:27 75° WNW 12:18:42 10° SSW
NOAA 12 4.3 12:08:23 10° NNE 12:13:42 83° ESE 12:19:01 10° SSW
STARLINK 1041 3.7 12:09:52 10° SW 12:14:00 82° SE 12:18:10 10° NE
Cosmos 2360 Rocket 2.3 12:10:00 10° SW 12:15:35 60° WNW 12:21:12 10° NNE
CENTAUR R/B 3.9 12:08:43 10° NW 12:16:07 36° WSW 12:23:50 10° S
STARLINK 1047 4.4 12:12:54 10° W 12:16:07 28° NNW 12:19:22 10° NE
Cosmos-2242 4.1 12:13:13 10° S 12:17:29 52° E 12:21:45 10° NNE
STARLINK 1037 4.4 12:14:21 10° W 12:17:33 27° NNW 12:20:47 10° NE
Cosmos 1812 Rocket 3.6 12:13:53 10° SSW 12:18:10 56° W 12:22:31 10° N
STARLINK 1038 3.7 12:14:49 10° SW 12:18:58 89° SE 12:23:07 10° NE
CZ-2C R/B 4.4 12:14:32 10° SE 12:19:07 31° ENE 12:23:49 10° N
Cosmos 2219 Rocket 3.3 12:15:14 10° S 12:20:41 52° ESE 12:26:12 10° NNE
CZ-4B R/B 4.0 12:17:14 10° N 12:21:54 29° WNW 12:26:29 10° WSW
Cosmos 2219 Rocket 3.5 22:52:28 10° NW 22:57:54 48° WSW 23:03:17 10° S
USA 32 4.3 22:53:53 10° SSE 22:58:53 49° E 23:03:55 10° NNE
Meteor 2-10 Rocket 4.4 22:54:29 10° NNE 22:58:58 28° ENE 23:03:18 10° SE
Cosmos 2227 Rocket 2.3 22:55:52 10° S 23:01:23 59° ESE 23:06:57 10° NNE
Cosmos 1953 Rocket 4.4 23:00:09 10° SSE 23:04:05 31° E 23:08:01 10° NNE
YAOGAN 6 3.1 23:00:56 10° SE 23:04:20 37° ENE 23:07:44 10° N
BREEZE-M DEB (TANK) 1.9 23:03:57 10° WSW 23:06:34 87° SSE 23:08:55 10° ENE
COSMO-SKYMED 1 3.1 23:03:56 10° NNE 23:08:01 39° E 23:12:04 10° SSE
Cosmos 1758 Rocket 3.6 23:04:17 10° S 23:08:30 58° E 23:12:44 10° NNE
Cosmos 1703 4.4 23:05:53 10° SE 23:09:05 24° E 23:12:17 10° NE
Envisat 3.0 23:06:38 10° SSE 23:11:41 74° ENE 23:16:46 10° N
Cosmos 1626 3.8 23:09:48 10° SW 23:13:12 35° WNW 23:16:39 10° N
ADEOS Rocket 4.4 23:09:49 10° NE 23:15:00 22° E 23:20:28 10° SE
DELTA 2 R/B (1) 3.7 23:10:01 10° W 23:15:35 75° S 23:21:11 10° E
Cosmos 2218 Rocket 4.4 23:11:06 10° SSE 23:17:02 44° E 23:23:03 10° NNE
Shenzhou-11 Module 1.6 23:15:05 10° WSW 23:17:47 88° SSE 23:19:57 14° ENE
Cosmos 44 3.1 23:13:12 10° SSW 23:17:47 64° ESE 23:22:12 10° NE
Cosmos 1939 Rocket 4.1 23:15:05 10° ESE 23:17:56 20° ENE 23:20:51 10° NNE
SKYMED 3 4.5 23:27:36 10° NNE 23:31:57 73° ESE 23:36:16 10° S
Cosmos 1825 Rocket 3.6 23:27:46 10° S 23:32:07 86° W 23:36:29 10° N
CSL-04 Debris 4.4 23:28:03 10° SE 23:33:08 44° ENE 23:38:14 10° N
Okean-O 2.9 23:32:06 10° S 23:36:31 73° WSW 23:40:57 10° NNW
CZ-2D R/B 3.9 23:34:25 10° SE 23:37:50 31° ENE 23:41:16 10° N
Cosmos 1455 2.1 23:34:11 10° N 23:37:58 60° E 23:41:40 10° SSE
ISS -2.7 23:36:26 10° W 23:39:38 39° NNW 23:41:53 17° NE
USA 116 3.3 23:43:22 16° NNE 23:45:38 46° E 23:48:38 10° S
Cosmos 2366 rocket 3.9 23:41:39 10° S 23:47:49 73° E 23:54:06 10° NNE
FALCON 9 R/B 4.3 23:29:52 10° SW 23:49:16 34° S 23:54:59 14° ESE
Cosmos 44 Rocket 4.3 23:48:20 10° SSE 23:52:18 26° ESE 23:53:16 24° E
CZ-4 R/B 1.4 23:49:45 10° SSE 23:53:47 89° WSW 23:57:58 10° NNW
Cosmos 2221 4.0 23:51:12 10° NNE 23:53:04 19° NE 23:53:04 19° NE
Ariane Rocket 3.7 23:50:54 10° SE 23:55:15 30° ENE 23:59:38 10° N
